Location: Oberwangen
(47.4286°N, 8.9679°E)
Time: 13:09:47
(UTC+00:00)

SPOT 5 - Pass Details

Date: 20 June 2021
Orbit: 622 x 815 km, 98.2° (Epoch: 03 August)

Event Time Altitude Azimuth Distance (km) Brightness Sun altitude
Exits shadow 20:48:15 13° 158° (SSE) 2,079 4.6 -10.8°
Maximum altitude 20:52:45 77° 74° (ENE) 766 3.0 -11.2°
Drops below altitude 10° 20:57:36 10° 349° (N) 2,202 6.5 -11.7°
Sets 20:59:49 0° 348° (NNW) 3,096 7.6 -11.9°
